EW2351 Cozumel MX current weather conditions

sailwx.info

Wind from 181 at 6 knots gusting 14

Air temperature 33.9° C
Dewpoint 17.1° C

Last reported at 2019-Jul-21 22:00 UTC.
Time now 2019-Jul-21 23:05 UTC

Location: N 20°33' W 086°55'.
View on Google Maps.

See reports from other nearby stations

  
Tides and Currents Weather Stations Pressure Air Temp Water Temp Dewpoint Dewpoint Depression Visibility Wind Speed Wind Dir Waves Ship Positions
date/time (UTC)wind fromknots sea level pressurealtimeterstation pressurevisibilityair tempwater tempwave heightnotes
2019-Jul-21 22:00 181 6 gusting 14 33.9
2019-Jul-21 21:45 212 5 gusting 13 34.4
2019-Jul-21 21:30 117 4 gusting 13 34.4
2019-Jul-21 21:15 198 6 gusting 13 34.4
2019-Jul-21 21:00 184 5 gusting 9 34.4
2019-Jul-21 20:45 223 6 gusting 13 34.4
2019-Jul-21 20:30 191 6 gusting 14 33.9
2019-Jul-21 20:15 264 2 gusting 8 33.9
2019-Jul-21 20:00 139 4 gusting 8 33.3
2019-Jul-21 19:45 162 5 gusting 10 33.3
2019-Jul-21 19:30 219 5 gusting 10 33.9
2019-Jul-21 19:16 212 4 gusting 7 33.3
2019-Jul-21 19:02 183 3 gusting 12 33.3
2019-Jul-21 18:46 168 7 gusting 12 33.3
2019-Jul-21 18:31 229 5 gusting 11 32.8
2019-Jul-21 18:16 113 4 gusting 7 32.8
2019-Jul-21 18:01 207 6 gusting 10 32.2
2019-Jul-21 17:47 146 5 gusting 13 31.7
2019-Jul-21 17:31 165 31.7
2019-Jul-21 17:16 201 3 gusting 11 31.7
2019-Jul-21 17:01 186 5 gusting 10 31.1
2019-Jul-21 16:46 223 4 gusting 10 30.6
2019-Jul-21 16:31 202 4 gusting 9 30.6
2019-Jul-21 16:16 232 3 gusting 8 30.0
2019-Jul-21 16:00 167 5 gusting 11 29.4
2019-Jul-21 15:45 172 5 gusting 11 28.9
2019-Jul-21 15:30 198 6 gusting 9 28.3
2019-Jul-21 15:15 240 6 gusting 12 27.8
2019-Jul-21 15:00 203 4 gusting 11 27.2
2019-Jul-21 14:45 181 5 gusting 11 27.2
2019-Jul-21 14:30 221 5 gusting 10 26.7
2019-Jul-21 14:00 221 3 gusting 10 25.6
2019-Jul-21 13:45 236 4 gusting 8 25.0
2019-Jul-21 13:30 170 5 gusting 7 24.4
2019-Jul-21 13:16 186 4 gusting 11 23.9
2019-Jul-21 13:02 181 3 gusting 6 23.9
2019-Jul-21 12:47 226 3 gusting 6 23.3
2019-Jul-21 12:31 215 2 gusting 6 22.8
2019-Jul-21 12:16 236 1 gusting 6 22.2
2019-Jul-21 12:02 203 1 gusting 4 22.2
2019-Jul-21 11:46 165 1 gusting 4 22.2
2019-Jul-21 11:31 195 1 gusting 4 22.2
2019-Jul-21 11:16 207 0 gusting 4 22.2
2019-Jul-21 11:01 208 2 gusting 6 22.2
2019-Jul-21 10:46 184 3 gusting 6 22.2
2019-Jul-21 10:31 198 2 gusting 7 22.8
2019-Jul-21 10:16 160 3 gusting 10 22.8
2019-Jul-21 10:01 203 2 gusting 6 22.8
2019-Jul-21 09:46 220 4 gusting 7 22.8
2019-Jul-21 09:31 167 3 gusting 8 22.8
2019-Jul-21 09:16 162 2 gusting 7 22.8
2019-Jul-21 09:01 250 2 gusting 6 23.3
2019-Jul-21 08:46 186 2 gusting 7 23.3
2019-Jul-21 08:31 216 3 gusting 6 23.3
2019-Jul-21 08:16 172 4 gusting 11 23.3
2019-Jul-21 08:01 184 5 gusting 12 23.9
2019-Jul-21 07:45 231 2 gusting 7 23.9
2019-Jul-21 07:30 192 2 gusting 7 23.9
2019-Jul-21 07:15 192 2 gusting 8 23.9
2019-Jul-21 07:00 192 4 gusting 9 24.4
2019-Jul-21 06:45 201 2 gusting 8 24.4
2019-Jul-21 06:31 208 3 gusting 8 24.4
2019-Jul-21 06:15 204 4 gusting 8 25.0
2019-Jul-21 06:00 191 4 gusting 6 25.0
2019-Jul-21 05:45 194 4 gusting 9 25.6
2019-Jul-21 05:30 172 6 gusting 12 25.6
2019-Jul-21 05:17 158 4 gusting 9 26.1
2019-Jul-21 05:02 133 3 gusting 10 26.1
2019-Jul-21 04:47 212 6 gusting 10 26.7
2019-Jul-21 04:32 151 5 gusting 10 26.7
2019-Jul-21 04:17 173 6 gusting 13 27.2
2019-Jul-21 04:02 167 6 gusting 11 27.2
2019-Jul-21 03:47 136 4 gusting 13 27.8
2019-Jul-21 03:31 181 5 gusting 12 28.3
2019-Jul-21 03:16 153 6 gusting 13 28.3
2019-Jul-21 03:01 160 5 gusting 10 28.3
2019-Jul-21 02:46 157 3 gusting 7 28.9
2019-Jul-21 02:31 166 4 gusting 10 29.4
2019-Jul-21 02:17 173 4 gusting 8 29.4
2019-Jul-21 02:01 150 3 gusting 9 30.0
2019-Jul-21 01:46 149 3 gusting 7 30.0
2019-Jul-21 01:31 136 3 gusting 8 30.6
2019-Jul-21 01:16 157 2 gusting 7 31.1
2019-Jul-21 01:01 129 3 gusting 7 31.7
2019-Jul-21 00:47 158 4 gusting 10 32.2
2019-Jul-21 00:31 108 2 gusting 6 33.3
2019-Jul-21 00:16 140 3 gusting 10 33.3
2019-Jul-21 00:01 193 6 gusting 10 33.9
2019-Jul-20 23:46 191 6 gusting 11 33.9
2019-Jul-20 23:31 150 5 gusting 12 33.9
2019-Jul-20 23:16 200 5 gusting 10 33.9
2019-Jul-20 23:01 218 6 gusting 11 34.4
2019-Jul-20 22:46 192 6 gusting 9 34.4
2019-Jul-20 22:31 201 6 gusting 12 34.4
2019-Jul-20 22:16 167 6 gusting 10 34.4
2019-Jul-20 22:01 163 6 gusting 12 34.4
2019-Jul-20 21:46 195 5 gusting 11 33.9
2019-Jul-20 21:31 178 6 gusting 10 34.4
2019-Jul-20 21:15 239 6 gusting 13 34.4
2019-Jul-20 21:00 144 5 gusting 14 33.9
2019-Jul-20 20:45 282 6 gusting 12 33.9
2019-Jul-20 20:30 173 8 gusting 14 33.3
2019-Jul-20 20:15 150 7 gusting 13 33.9
2019-Jul-20 20:00 188 7 gusting 11 33.9
2019-Jul-20 19:45 164 6 gusting 14 33.3
2019-Jul-20 19:30 188 7 gusting 13 32.8
2019-Jul-20 19:15 167 5 gusting 12 32.8
2019-Jul-20 19:00 186 5 gusting 13 32.8
2019-Jul-20 18:45 174 6 gusting 9 32.8
2019-Jul-20 18:30 162 8 gusting 15 32.2
2019-Jul-20 18:17 169 5 gusting 10 32.2
2019-Jul-20 18:01 207 5 gusting 13 31.7
2019-Jul-20 17:46 235 6 gusting 12 31.7
2019-Jul-20 17:31 145 6 gusting 13 30.6
2019-Jul-20 17:16 162 4 gusting 12 30.6
2019-Jul-20 17:01 177 6 gusting 14 30.0
2019-Jul-20 16:46 212 7 gusting 14 30.0
2019-Jul-20 16:31 167 7 gusting 12 30.0
2019-Jul-20 16:16 176 6 gusting 11 29.4
2019-Jul-20 16:01 233 5 gusting 9 28.9
2019-Jul-20 15:45 257 4 gusting 11 28.3
2019-Jul-20 15:30 149 6 gusting 11 28.3
2019-Jul-20 15:16 184 7 gusting 13 27.8
2019-Jul-20 15:01 129 6 gusting 13 27.8
2019-Jul-20 14:47 159 6 gusting 13 27.8
2019-Jul-20 14:30 255 6 gusting 12 27.2
2019-Jul-20 14:15 140 4 gusting 7 26.1
2019-Jul-20 14:00 200 4 gusting 10 25.0
2019-Jul-20 13:45 214 6 gusting 10 25.0
2019-Jul-20 13:30 200 5 gusting 11 25.0
2019-Jul-20 13:15 205 4 gusting 11 25.0
2019-Jul-20 13:00 238 5 gusting 9 24.4
2019-Jul-20 12:45 193 4 gusting 8 23.9
2019-Jul-20 12:31 188 5 gusting 9 23.9
2019-Jul-20 12:15 161 3 gusting 7 23.3
2019-Jul-20 12:00 176 2 gusting 6 23.3
2019-Jul-20 11:45 159 2 gusting 6 23.3
2019-Jul-20 11:30 222 2 gusting 6 23.3
2019-Jul-20 11:15 214 4 gusting 9 23.3
2019-Jul-20 10:45 199 6 gusting 10 23.3
2019-Jul-20 10:30 226 4 gusting 9 23.3
2019-Jul-20 10:15 147 3 gusting 14 23.9
2019-Jul-20 10:01 178 6 gusting 11 23.9
2019-Jul-20 09:46 190 5 gusting 11 23.9
2019-Jul-20 09:32 180 5 gusting 13 23.9
2019-Jul-20 09:16 151 4 gusting 9 23.9
2019-Jul-20 08:47 186 5 gusting 12 24.4
2019-Jul-20 08:31 236 4 gusting 10 24.4
2019-Jul-20 08:16 216 5 gusting 12 24.4
2019-Jul-20 08:02 225 6 gusting 11 25.0
2019-Jul-20 07:47 229 4 gusting 9 25.0
2019-Jul-20 07:31 149 6 gusting 13 25.0
2019-Jul-20 07:16 212 6 gusting 11 25.0
2019-Jul-20 07:01 179 3 gusting 9 25.0
2019-Jul-20 06:46 195 5 gusting 11 25.0
2019-Jul-20 06:31 205 4 gusting 8 25.0
2019-Jul-20 06:16 193 4 gusting 9 25.0
2019-Jul-20 06:01 129 4 gusting 8 25.6
2019-Jul-20 05:45 236 4 gusting 13 25.6
2019-Jul-20 05:31 198 3 gusting 11 25.6
2019-Jul-20 05:15 190 4 gusting 8 26.1
2019-Jul-20 05:00 160 6 gusting 12 26.1
2019-Jul-20 04:45 212 5 gusting 14 26.7
2019-Jul-20 04:30 138 7 gusting 14 26.7
2019-Jul-20 04:15 155 6 gusting 12 27.2
2019-Jul-20 04:01 164 4 gusting 11 27.2
2019-Jul-20 03:45 193 5 gusting 13 27.8
2019-Jul-20 03:30 160 6 gusting 13 27.8
2019-Jul-20 03:15 147 5 gusting 9 27.8
2019-Jul-20 03:00 191 4 gusting 9 28.3
2019-Jul-20 02:45 153 6 gusting 13 28.9
2019-Jul-20 02:30 167 6 gusting 10 28.9
2019-Jul-20 02:15 122 6 gusting 11 29.4
2019-Jul-20 02:00 158 6 gusting 11 29.4
2019-Jul-20 01:45 121 4 gusting 8 30.0
2019-Jul-20 01:30 186 6 gusting 11 30.0
2019-Jul-20 01:15 186 6 gusting 13 30.6
2019-Jul-20 01:00 228 5 gusting 13 31.1
2019-Jul-20 00:45 180 5 gusting 13 32.2
2019-Jul-20 00:30 154 7 gusting 12 32.8
2019-Jul-20 00:15 148 5 gusting 12 32.8
2019-Jul-20 00:00 158 5 gusting 13 32.8
2019-Jul-19 23:45 157 3 gusting 12 32.8
2019-Jul-19 23:30 143 6 gusting 13 33.3
2019-Jul-19 23:18 158 4 gusting 12 32.8
2019-Jul-19 23:01 175 6 gusting 10 33.3